Time,TemperatureF,DewpointF,PressureIn,WindDirection,WindDirectionDegrees,WindSpeedMPH,WindSpeedGustMPH,Humidity,HourlyPrecipIn,Conditions,Clouds,dailyrainin,SoftwareType,DateUTC
2013-02-28 00:00:00,32.8,32.0,29.56,WSW,250,2.0,3.0,97,0.00,,---,0.31,VWS V14.01,2013-02-28 05:00:00,
2013-02-28 00:01:00,32.7,31.9,29.56,WSW,248,2.0,3.0,97,0.00,,---,0.31,VWS V14.01,2013-02-28 05:01:00,
2013-02-28 00:02:00,32.8,32.0,29.56,WSW,238,2.0,2.0,97,0.00,,---,0.00,VWS V14.01,2013-02-28 05:02:00,
2013-02-28 00:07:00,32.8,32.0,29.56,WSW,256,2.0,3.0,97,0.00,,---,0.00,VWS V14.01,2013-02-28 05:07:00,
2013-02-28 00:12:00,32.8,32.0,29.56,West,263,3.0,3.0,97,0.00,,---,0.00,VWS V14.01,2013-02-28 05:12:00,
2013-02-28 00:17:00,32.8,32.0,29.56,WSW,238,1.0,3.0,97,0.01,,---,0.01,VWS V14.01,2013-02-28 05:17:00,
2013-02-28 00:22:00,32.8,32.0,29.56,WSW,250,1.0,3.0,97,0.01,,---,0.01,VWS V14.01,2013-02-28 05:22:00,
2013-02-28 00:27:00,32.8,32.0,29.56,WSW,245,1.0,3.0,97,0.01,,---,0.01,VWS V14.01,2013-02-28 05:27:00,
2013-02-28 00:33:00,32.8,32.0,29.56,WSW,257,1.0,3.0,97,0.01,,---,0.01,VWS V14.01,2013-02-28 05:33:00,
2013-02-28 00:38:00,32.8,32.0,29.56,WSW,239,2.0,3.0,97,0.01,,---,0.01,VWS V14.01,2013-02-28 05:38:00,
2013-02-28 00:43:00,32.7,31.9,29.56,WNW,282,1.0,3.0,97,0.01,,---,0.01,VWS V14.01,2013-02-28 05:43:00,
2013-02-28 00:48:00,32.8,32.0,29.56,West,278,2.0,4.0,97,0.01,,---,0.01,VWS V14.01,2013-02-28 05:48:00,
2013-02-28 00:53:00,32.8,32.0,29.56,West,264,1.0,4.0,97,0.01,,---,0.01,VWS V14.01,2013-02-28 05:53:00,
2013-02-28 00:58:00,32.7,31.9,29.55,West,277,1.0,4.0,97,0.01,,---,0.01,VWS V14.01,2013-02-28 05:58:00,
2013-02-28 01:03:00,32.7,31.9,29.56,WNW,295,1.0,3.0,97,0.01,,---,0.01,VWS V14.01,2013-02-28 06:03:00,
2013-02-28 01:08:00,32.7,31.9,29.56,West,281,2.0,4.0,97,0.01,,---,0.01,VWS V14.01,2013-02-28 06:08:00,
2013-02-28 01:13:00,32.7,31.9,29.56,NW,304,2.0,4.0,97,0.01,,---,0.01,VWS V14.01,2013-02-28 06:13:00,
2013-02-28 01:19:00,32.7,31.9,29.56,WNW,284,2.0,4.0,97,0.01,,---,0.01,VWS V14.01,2013-02-28 06:19:00,
2013-02-28 01:24:00,32.7,31.9,29.56,West,281,2.0,5.0,97,0.01,,---,0.01,VWS V14.01,2013-02-28 06:24:00,
2013-02-28 01:29:00,32.7,31.9,29.56,NW,307,1.0,5.0,97,0.01,,---,0.01,VWS V14.01,2013-02-28 06:29:00,
2013-02-28 01:34:00,32.6,31.8,29.56,NW,308,2.0,6.0,97,0.01,,---,0.01,VWS V14.01,2013-02-28 06:34:00,
2013-02-28 01:39:00,32.6,31.8,29.57,NNW,338,2.0,6.0,97,0.01,,---,0.01,VWS V14.01,2013-02-28 06:39:00,
2013-02-28 01:44:00,32.6,31.8,29.57,North,356,3.0,6.0,97,0.01,,---,0.01,VWS V14.01,2013-02-28 06:44:00,
2013-02-28 01:49:00,32.5,31.7,29.57,NW,314,3.0,6.0,97,0.01,,---,0.01,VWS V14.01,2013-02-28 06:49:00,
2013-02-28 01:54:00,32.5,31.7,29.57,WNW,294,2.0,6.0,97,0.01,,---,0.01,VWS V14.01,2013-02-28 06:54:00,
2013-02-28 01:59:00,32.5,31.7,29.57,NNW,338,3.0,6.0,97,0.01,,---,0.01,VWS V14.01,2013-02-28 06:59:00,
2013-02-28 02:05:00,32.5,31.7,29.57,North,354,3.0,4.0,97,0.00,,---,0.01,VWS V14.01,2013-02-28 07:05:00,
2013-02-28 02:10:00,32.4,31.6,29.57,NW,306,4.0,5.0,97,0.00,,---,0.01,VWS V14.01,2013-02-28 07:10:00,
2013-02-28 02:15:00,32.4,31.6,29.57,NNW,336,2.0,7.0,97,0.00,,---,0.01,VWS V14.01,2013-02-28 07:15:00,
2013-02-28 02:20:00,32.4,31.6,29.57,NW,312,5.0,7.0,97,0.00,,---,0.01,VWS V14.01,2013-02-28 07:20:00,
2013-02-28 02:25:00,32.4,31.6,29.57,NNW,342,2.0,7.0,97,0.00,,---,0.01,VWS V14.01,2013-02-28 07:25:00,
2013-02-28 02:30:00,32.3,31.8,29.57,NNW,340,2.0,7.0,98,0.00,,---,0.01,VWS V14.01,2013-02-28 07:30:00,
2013-02-28 02:35:00,32.3,31.8,29.57,NNW,340,3.0,7.0,98,0.00,,---,0.01,VWS V14.01,2013-02-28 07:35:00,
2013-02-28 02:41:00,32.3,31.8,29.57,NNE,19,3.0,7.0,98,0.00,,---,0.01,VWS V14.01,2013-02-28 07:41:00,
2013-02-28 02:46:00,32.3,31.5,29.57,NNW,347,3.0,7.0,97,0.00,,---,0.01,VWS V14.01,2013-02-28 07:46:00,
2013-02-28 02:51:00,32.3,31.8,29.57,NW,311,3.0,7.0,98,0.00,,---,0.01,VWS V14.01,2013-02-28 07:51:00,
2013-02-28 02:56:00,32.3,31.8,29.57,NW,311,2.0,7.0,98,0.00,,---,0.01,VWS V14.01,2013-02-28 07:56:00,
2013-02-28 03:01:00,32.3,31.8,29.57,NNW,335,2.0,7.0,98,0.00,,---,0.01,VWS V14.01,2013-02-28 08:01:00,
2013-02-28 03:06:00,32.3,31.8,29.57,NW,308,3.0,6.0,98,0.00,,---,0.01,VWS V14.01,2013-02-28 08:06:00,
2013-02-28 03:11:00,32.3,31.8,29.57,NNW,334,4.0,6.0,98,0.00,,---,0.01,VWS V14.01,2013-02-28 08:11:00,
2013-02-28 03:17:00,32.3,31.8,29.57,NW,322,1.0,6.0,98,0.00,,---,0.01,VWS V14.01,2013-02-28 08:17:00,
2013-02-28 03:22:00,32.3,31.8,29.57,NW,322,5.0,7.0,98,0.00,,---,0.01,VWS V14.01,2013-02-28 08:22:00,
2013-02-28 03:27:00,32.3,31.8,29.57,NW,312,2.0,7.0,98,0.00,,---,0.01,VWS V14.01,2013-02-28 08:27:00,
2013-02-28 03:32:00,32.3,31.8,29.57,NNW,335,6.0,9.0,98,0.00,,---,0.01,VWS V14.01,2013-02-28 08:32:00,
2013-02-28 03:37:00,32.3,31.8,29.57,North,354,4.0,9.0,98,0.00,,---,0.01,VWS V14.01,2013-02-28 08:37:00,
2013-02-28 03:42:00,32.3,31.8,29.57,NW,319,2.0,9.0,98,0.00,,---,0.01,VWS V14.01,2013-02-28 08:42:00,
2013-02-28 03:47:00,32.3,31.5,29.57,NW,312,3.0,9.0,97,0.00,,---,0.01,VWS V14.01,2013-02-28 08:47:00,
2013-02-28 03:53:00,32.3,31.5,29.57,NW,314,2.0,9.0,97,0.00,,---,0.01,VWS V14.01,2013-02-28 08:53:00,
2013-02-28 03:58:00,32.3,31.5,29.57,North,9,4.0,9.0,97,0.00,,---,0.01,VWS V14.01,2013-02-28 08:58:00,
2013-02-28 04:03:00,32.3,31.5,29.58,NNW,344,7.0,9.0,97,0.00,,---,0.01,VWS V14.01,2013-02-28 09:03:00,
2013-02-28 04:08:00,32.3,31.5,29.57,NW,304,4.0,9.0,97,0.00,,---,0.01,VWS V14.01,2013-02-28 09:08:00,
2013-02-28 04:13:00,32.3,31.5,29.58,NNW,336,3.0,9.0,97,0.00,,---,0.01,VWS V14.01,2013-02-28 09:13:00,
2013-02-28 04:18:00,32.3,31.5,29.58,NNE,13,4.0,9.0,97,0.00,,---,0.01,VWS V14.01,2013-02-28 09:18:00,
2013-02-28 04:23:00,32.3,31.5,29.58,NW,319,3.0,9.0,97,0.00,,---,0.01,VWS V14.01,2013-02-28 09:23:00,
2013-02-28 04:29:00,32.3,31.5,29.58,NNW,330,4.0,9.0,97,0.00,,---,0.01,VWS V14.01,2013-02-28 09:29:00,
2013-02-28 04:34:00,32.3,31.8,29.58,NNW,342,3.0,9.0,98,0.00,,---,0.01,VWS V14.01,2013-02-28 09:34:00,
2013-02-28 04:39:00,32.3,31.8,29.58,NNW,328,4.0,9.0,98,0.00,,---,0.01,VWS V14.01,2013-02-28 09:39:00,
2013-02-28 04:44:00,32.3,31.8,29.59,NNW,330,4.0,9.0,98,0.00,,---,0.01,VWS V14.01,2013-02-28 09:44:00,
2013-02-28 04:49:00,32.3,31.8,29.59,NNW,330,3.0,9.0,98,0.00,,---,0.01,VWS V14.01,2013-02-28 09:49:00,
2013-02-28 04:54:00,32.3,31.8,29.59,North,356,5.0,9.0,98,0.00,,---,0.01,VWS V14.01,2013-02-28 09:54:00,
2013-02-28 04:59:00,32.3,31.8,29.59,NNW,342,4.0,9.0,98,0.00,,---,0.01,VWS V14.01,2013-02-28 09:59:00,
2013-02-28 05:05:00,32.3,31.8,29.59,North,11,6.0,9.0,98,0.00,,---,0.01,VWS V14.01,2013-02-28 10:05:00,
2013-02-28 05:10:00,32.3,31.8,29.59,NW,318,4.0,9.0,98,0.00,,---,0.01,VWS V14.01,2013-02-28 10:10:00,
2013-02-28 05:15:00,32.3,31.5,29.59,NNW,330,7.0,9.0,97,0.00,,---,0.01,VWS V14.01,2013-02-28 10:15:00,
2013-02-28 05:20:00,32.3,31.5,29.60,NNE,17,3.0,9.0,97,0.00,,---,0.01,VWS V14.01,2013-02-28 10:20:00,
2013-02-28 05:25:00,32.3,31.5,29.60,NNW,335,3.0,9.0,97,0.00,,---,0.01,VWS V14.01,2013-02-28 10:25:00,
2013-02-28 05:30:00,32.2,31.5,29.60,NW,304,8.0,11.0,97,0.00,,---,0.01,VWS V14.01,2013-02-28 10:30:00,
2013-02-28 05:35:00,32.2,31.5,29.60,NNW,328,6.0,11.0,97,0.00,,---,0.01,VWS V14.01,2013-02-28 10:35:00,
2013-02-28 05:41:00,32.2,31.5,29.60,NNE,15,6.0,12.0,97,0.00,,---,0.01,VWS V14.01,2013-02-28 10:41:00,
2013-02-28 05:46:00,32.2,31.5,29.60,NNW,338,4.0,12.0,97,0.00,,---,0.01,VWS V14.01,2013-02-28 10:46:00,
2013-02-28 05:51:00,32.1,31.4,29.60,NNE,27,6.0,15.0,97,0.00,,---,0.01,VWS V14.01,2013-02-28 10:51:00,
2013-02-28 05:56:00,32.1,31.4,29.61,NNW,338,9.0,15.0,97,0.00,,---,0.01,VWS V14.01,2013-02-28 10:56:00,
2013-02-28 06:01:00,32.1,31.4,29.60,North,349,8.0,15.0,97,0.00,,---,0.01,VWS V14.01,2013-02-28 11:01:00,
2013-02-28 06:06:00,32.1,31.4,29.61,North,352,6.0,12.0,97,0.00,,---,0.01,VWS V14.01,2013-02-28 11:06:00,
2013-02-28 06:11:00,32.0,31.2,29.61,NNW,336,7.0,12.0,97,0.00,,---,0.01,VWS V14.01,2013-02-28 11:11:00,
2013-02-28 06:17:00,32.0,31.2,29.61,North,6,3.0,14.0,97,0.00,,---,0.01,VWS V14.01,2013-02-28 11:17:00,
2013-02-28 06:22:00,32.0,31.2,29.61,NNE,15,6.0,14.0,97,0.00,,---,0.01,VWS V14.01,2013-02-28 11:22:00,
2013-02-28 06:27:00,32.0,31.2,29.61,North,356,6.0,14.0,97,0.00,,---,0.01,VWS V14.01,2013-02-28 11:27:00,
2013-02-28 06:32:00,32.0,31.2,29.61,North,9,5.0,14.0,97,0.00,,---,0.01,VWS V14.01,2013-02-28 11:32:00,
2013-02-28 06:37:00,32.0,31.2,29.61,North,354,8.0,14.0,97,0.00,,---,0.01,VWS V14.01,2013-02-28 11:37:00,
2013-02-28 06:42:00,32.0,31.2,29.62,NW,307,4.0,14.0,97,0.00,,---,0.01,VWS V14.01,2013-02-28 11:42:00,
2013-02-28 06:47:00,32.0,31.2,29.62,NNW,335,3.0,14.0,97,0.00,,---,0.01,VWS V14.01,2013-02-28 11:47:00,
2013-02-28 06:52:00,31.9,31.1,29.62,NNW,338,7.0,14.0,97,0.00,,---,0.01,VWS V14.01,2013-02-28 11:52:00,
2013-02-28 06:58:00,32.0,31.2,29.62,NNW,330,4.0,14.0,97,0.00,,---,0.01,VWS V14.01,2013-02-28 11:58:00,
2013-02-28 07:03:00,32.0,31.2,29.63,NW,325,4.0,5.0,97,0.00,,---,0.01,VWS V14.01,2013-02-28 12:03:00,
2013-02-28 07:08:00,31.9,31.1,29.63,North,354,7.0,9.0,97,0.00,,---,0.01,VWS V14.01,2013-02-28 12:08:00,
2013-02-28 07:13:00,31.9,31.1,29.63,North,350,8.0,9.0,97,0.00,,---,0.01,VWS V14.01,2013-02-28 12:13:00,
2013-02-28 07:18:00,31.9,31.1,29.63,West,276,6.0,10.0,97,0.00,,---,0.01,VWS V14.01,2013-02-28 12:18:00,
2013-02-28 07:23:00,32.0,31.2,29.63,NNW,344,5.0,11.0,97,0.00,,---,0.01,VWS V14.01,2013-02-28 12:23:00,
2013-02-28 07:28:00,32.0,31.2,29.64,NW,322,6.0,11.0,97,0.00,,---,0.01,VWS V14.01,2013-02-28 12:28:00,
2013-02-28 07:34:00,32.0,31.2,29.64,NW,326,5.0,11.0,97,0.00,,---,0.01,VWS V14.01,2013-02-28 12:34:00,
2013-02-28 07:39:00,32.1,31.4,29.64,NW,308,7.0,16.0,97,0.00,,---,0.01,VWS V14.01,2013-02-28 12:39:00,
2013-02-28 07:44:00,32.1,31.4,29.64,NNW,339,7.0,16.0,97,0.00,,---,0.01,VWS V14.01,2013-02-28 12:44:00,
2013-02-28 07:49:00,32.1,31.4,29.64,North,4,6.0,16.0,97,0.00,,---,0.01,VWS V14.01,2013-02-28 12:49:00,
2013-02-28 07:54:00,32.1,31.4,29.65,NNW,328,5.0,16.0,97,0.00,,---,0.01,VWS V14.01,2013-02-28 12:54:00,
2013-02-28 07:59:00,32.1,31.4,29.65,NNW,332,2.0,16.0,97,0.00,,---,0.01,VWS V14.01,2013-02-28 12:59:00,
2013-02-28 08:04:00,32.1,31.4,29.65,NNW,345,8.0,12.0,97,0.00,,---,0.01,VWS V14.01,2013-02-28 13:04:00,
2013-02-28 08:09:00,32.2,31.5,29.65,NW,326,6.0,12.0,97,0.00,,---,0.01,VWS V14.01,2013-02-28 13:09:00,
2013-02-28 08:14:00,32.2,31.5,29.66,North,358,4.0,12.0,97,0.00,,---,0.01,VWS V14.01,2013-02-28 13:14:00,
2013-02-28 08:19:00,32.2,31.5,29.66,NNE,18,6.0,12.0,97,0.00,,---,0.01,VWS V14.01,2013-02-28 13:19:00,
2013-02-28 08:25:00,32.3,31.5,29.66,NNE,17,6.0,15.0,97,0.00,,---,0.01,VWS V14.01,2013-02-28 13:25:00,
2013-02-28 08:30:00,32.3,31.5,29.66,North,11,8.0,16.0,97,0.00,,---,0.01,VWS V14.01,2013-02-28 13:30:00,
2013-02-28 08:35:00,32.4,31.6,29.67,NNW,331,3.0,16.0,97,0.00,,---,0.01,VWS V14.01,2013-02-28 13:35:00,
2013-02-28 08:40:00,32.4,31.6,29.67,NNW,335,9.0,16.0,97,0.00,,---,0.01,VWS V14.01,2013-02-28 13:40:00,
2013-02-28 08:45:00,32.4,31.6,29.67,NNW,330,6.0,16.0,97,0.00,,---,0.01,VWS V14.01,2013-02-28 13:45:00,
2013-02-28 08:50:00,32.5,31.7,29.67,North,356,5.0,16.0,97,0.00,,---,0.01,VWS V14.01,2013-02-28 13:50:00,
2013-02-28 08:55:00,32.5,31.7,29.67,NNE,15,13.0,16.0,97,0.00,,---,0.01,VWS V14.01,2013-02-28 13:55:00,
2013-02-28 09:00:00,32.5,31.7,29.67,North,7,7.0,16.0,97,0.00,,---,0.01,VWS V14.01,2013-02-28 14:00:00,
2013-02-28 09:06:00,32.6,31.8,29.68,North,9,11.0,14.0,97,0.00,,---,0.01,VWS V14.01,2013-02-28 14:06:00,
2013-02-28 09:11:00,32.7,31.9,29.68,NNE,27,4.0,14.0,97,0.00,,---,0.01,VWS V14.01,2013-02-28 14:11:00,
2013-02-28 09:16:00,32.7,31.9,29.68,NNE,12,7.0,14.0,97,0.00,,---,0.01,VWS V14.01,2013-02-28 14:16:00,
2013-02-28 09:21:00,32.7,31.9,29.69,NNW,343,5.0,14.0,97,0.00,,---,0.01,VWS V14.01,2013-02-28 14:21:00,
2013-02-28 09:26:00,32.8,32.0,29.69,NNW,333,5.0,14.0,97,0.00,,---,0.01,VWS V14.01,2013-02-28 14:26:00,
2013-02-28 09:31:00,32.8,32.0,29.69,NNW,330,10.0,14.0,97,0.00,,---,0.01,VWS V14.01,2013-02-28 14:31:00,
2013-02-28 09:37:00,32.8,32.0,29.69,NNE,30,7.0,14.0,97,0.00,,---,0.01,VWS V14.01,2013-02-28 14:37:00,
2013-02-28 09:42:00,32.9,32.1,29.69,North,349,8.0,14.0,97,0.00,,---,0.01,VWS V14.01,2013-02-28 14:42:00,
2013-02-28 09:47:00,33.0,32.2,29.69,NNW,329,4.0,14.0,97,0.01,,---,0.02,VWS V14.01,2013-02-28 14:47:00,
2013-02-28 09:52:00,33.1,32.3,29.69,NNW,342,3.0,14.0,97,0.01,,---,0.02,VWS V14.01,2013-02-28 14:52:00,
2013-02-28 09:57:00,33.2,32.4,29.69,NNE,25,14.0,14.0,97,0.01,,---,0.02,VWS V14.01,2013-02-28 14:57:00,
2013-02-28 10:03:00,33.2,32.4,29.70,North,355,14.0,15.0,97,0.01,,---,0.02,VWS V14.01,2013-02-28 15:03:00,
2013-02-28 10:08:00,33.3,32.3,29.70,NNE,15,10.0,15.0,96,0.01,,---,0.02,VWS V14.01,2013-02-28 15:08:00,
2013-02-28 10:13:00,33.4,32.4,29.70,North,354,5.0,15.0,96,0.01,,---,0.02,VWS V14.01,2013-02-28 15:13:00,
2013-02-28 10:18:00,33.3,32.3,29.71,NNW,333,8.0,15.0,96,0.02,,---,0.03,VWS V14.01,2013-02-28 15:18:00,
2013-02-28 10:23:00,33.3,32.3,29.71,NNE,15,10.0,15.0,96,0.02,,---,0.03,VWS V14.01,2013-02-28 15:23:00,
2013-02-28 10:28:00,33.2,32.2,29.71,North,5,8.0,15.0,96,0.02,,---,0.03,VWS V14.01,2013-02-28 15:28:00,
2013-02-28 10:33:00,33.3,32.3,29.71,NNE,20,7.0,15.0,96,0.02,,---,0.03,VWS V14.01,2013-02-28 15:33:00,
2013-02-28 10:38:00,33.4,32.4,29.71,North,4,5.0,15.0,96,0.02,,---,0.03,VWS V14.01,2013-02-28 15:38:00,
2013-02-28 10:44:00,33.3,32.3,29.72,NW,310,10.0,16.0,96,0.03,,---,0.04,VWS V14.01,2013-02-28 15:44:00,
2013-02-28 10:49:00,33.4,32.4,29.72,NW,324,5.0,17.0,96,0.03,,---,0.04,VWS V14.01,2013-02-28 15:49:00,
2013-02-28 10:54:00,33.4,32.4,29.72,NE,41,11.0,17.0,96,0.03,,---,0.04,VWS V14.01,2013-02-28 15:54:00,
2013-02-28 10:59:00,33.6,32.3,29.72,NNE,15,13.0,22.0,95,0.03,,---,0.04,VWS V14.01,2013-02-28 15:59:00,
2013-02-28 11:04:00,34.1,32.8,29.72,NW,316,13.0,14.0,95,0.02,,---,0.04,VWS V14.01,2013-02-28 16:04:00,
2013-02-28 11:09:00,34.1,32.6,29.72,NNW,342,4.0,19.0,94,0.02,,---,0.04,VWS V14.01,2013-02-28 16:09:00,
2013-02-28 11:14:00,33.8,32.3,29.73,NW,321,11.0,19.0,94,0.03,,---,0.05,VWS V14.01,2013-02-28 16:14:00,
2013-02-28 11:20:00,33.6,32.3,29.73,North,354,8.0,19.0,95,0.03,,---,0.05,VWS V14.01,2013-02-28 16:20:00,
2013-02-28 11:25:00,33.7,32.4,29.73,NE,37,10.0,19.0,95,0.03,,---,0.05,VWS V14.01,2013-02-28 16:25:00,
2013-02-28 11:30:00,33.7,32.4,29.74,NNE,18,12.0,19.0,95,0.03,,---,0.05,VWS V14.01,2013-02-28 16:30:00,
2013-02-28 11:35:00,33.7,32.4,29.74,North,7,7.0,19.0,95,0.03,,---,0.05,VWS V14.01,2013-02-28 16:35:00,
2013-02-28 11:40:00,33.9,32.4,29.74,North,349,9.0,19.0,94,0.03,,---,0.05,VWS V14.01,2013-02-28 16:40:00,
2013-02-28 11:45:00,33.8,32.3,29.74,North,9,11.0,19.0,94,0.04,,---,0.06,VWS V14.01,2013-02-28 16:45:00,
2013-02-28 11:50:00,33.6,32.1,29.75,NNE,25,12.0,19.0,94,0.04,,---,0.06,VWS V14.01,2013-02-28 16:50:00,
2013-02-28 11:55:00,33.5,32.0,29.75,NNE,15,17.0,19.0,94,0.04,,---,0.06,VWS V14.01,2013-02-28 16:55:00,
2013-02-28 12:00:00,33.6,32.1,29.75,North,352,7.0,19.0,94,0.04,,---,0.06,VWS V14.01,2013-02-28 17:00:00,
2013-02-28 12:06:00,33.9,32.1,29.75,NNW,342,11.0,19.0,93,0.02,,---,0.06,VWS V14.01,2013-02-28 17:06:00,
2013-02-28 12:11:00,34.1,32.0,29.75,NNE,21,8.0,19.0,92,0.02,,---,0.06,VWS V14.01,2013-02-28 17:11:00,
2013-02-28 12:16:00,34.4,31.8,29.75,NNE,19,12.0,19.0,90,0.02,,---,0.06,VWS V14.01,2013-02-28 17:16:00,
2013-02-28 12:21:00,34.5,31.9,29.75,NNW,342,14.0,24.0,90,0.02,,---,0.06,VWS V14.01,2013-02-28 17:21:00,
2013-02-28 12:26:00,34.1,31.8,29.75,North,352,7.0,24.0,91,0.03,,---,0.07,VWS V14.01,2013-02-28 17:26:00,
2013-02-28 12:31:00,33.9,31.6,29.76,NNE,25,7.0,24.0,91,0.03,,---,0.07,VWS V14.01,2013-02-28 17:31:00,
2013-02-28 12:37:00,33.9,31.0,29.76,North,7,12.0,24.0,89,0.03,,---,0.07,VWS V14.01,2013-02-28 17:37:00,
2013-02-28 12:42:00,34.0,31.1,29.76,NNE,26,12.0,24.0,89,0.03,,---,0.07,VWS V14.01,2013-02-28 17:42:00,
2013-02-28 12:47:00,33.9,30.7,29.76,NE,49,10.0,24.0,88,0.03,,---,0.07,VWS V14.01,2013-02-28 17:47:00,
2013-02-28 12:52:00,33.9,30.7,29.76,NNW,345,7.0,24.0,88,0.03,,---,0.07,VWS V14.01,2013-02-28 17:52:00,
2013-02-28 12:57:00,34.1,30.6,29.76,North,356,13.0,24.0,87,0.03,,---,0.07,VWS V14.01,2013-02-28 17:57:00,
2013-02-28 13:02:00,34.1,30.6,29.77,North,360,10.0,13.0,87,0.01,,---,0.07,VWS V14.01,2013-02-28 18:02:00,
2013-02-28 13:07:00,34.1,30.4,29.77,North,352,10.0,20.0,86,0.01,,---,0.07,VWS V14.01,2013-02-28 18:07:00,
2013-02-28 13:12:00,34.1,30.4,29.77,NW,326,6.0,20.0,86,0.01,,---,0.07,VWS V14.01,2013-02-28 18:12:00,
2013-02-28 13:17:00,34.0,30.0,29.77,NNW,333,12.0,20.0,85,0.01,,---,0.07,VWS V14.01,2013-02-28 18:17:00,
2013-02-28 13:22:00,33.9,29.9,29.77,NNE,12,6.0,22.0,85,0.01,,---,0.07,VWS V14.01,2013-02-28 18:22:00,
2013-02-28 13:27:00,33.9,29.9,29.77,NNE,18,11.0,22.0,85,0.01,,---,0.07,VWS V14.01,2013-02-28 18:27:00,
2013-02-28 13:32:00,33.8,29.5,29.77,NNE,22,13.0,23.0,84,0.01,,---,0.07,VWS V14.01,2013-02-28 18:32:00,
2013-02-28 13:38:00,34.0,29.7,29.77,NNE,30,7.0,23.0,84,0.01,,---,0.07,VWS V14.01,2013-02-28 18:38:00,
2013-02-28 13:43:00,33.9,29.6,29.77,NE,47,7.0,23.0,84,0.01,,---,0.07,VWS V14.01,2013-02-28 18:43:00,
2013-02-28 13:48:00,33.9,29.6,29.77,NNW,338,13.0,23.0,84,0.01,,---,0.07,VWS V14.01,2013-02-28 18:48:00,
2013-02-28 13:53:00,33.8,29.8,29.78,North,1,12.0,23.0,85,0.01,,---,0.07,VWS V14.01,2013-02-28 18:53:00,
2013-02-28 13:58:00,33.3,30.1,29.78,North,360,10.0,23.0,88,0.01,,---,0.07,VWS V14.01,2013-02-28 18:58:00,
2013-02-28 14:03:00,33.2,30.3,29.78,NNE,15,15.0,17.0,89,0.00,,---,0.07,VWS V14.01,2013-02-28 19:03:00,
2013-02-28 14:08:00,33.4,30.2,29.78,North,9,4.0,17.0,88,0.00,,---,0.07,VWS V14.01,2013-02-28 19:08:00,
2013-02-28 14:13:00,33.5,30.0,29.78,NNW,332,2.0,17.0,87,0.00,,---,0.07,VWS V14.01,2013-02-28 19:13:00,
2013-02-28 14:19:00,33.6,29.9,29.79,NNE,13,18.0,20.0,86,0.00,,---,0.07,VWS V14.01,2013-02-28 19:19:00,
2013-02-28 14:24:00,33.3,29.3,29.79,NE,36,15.0,20.0,85,0.00,,---,0.07,VWS V14.01,2013-02-28 19:24:00,
2013-02-28 14:29:00,33.2,28.9,29.79,NNE,19,12.0,20.0,84,0.00,,---,0.07,VWS V14.01,2013-02-28 19:29:00,
2013-02-28 14:34:00,33.1,28.8,29.79,North,353,15.0,20.0,84,0.00,,---,0.07,VWS V14.01,2013-02-28 19:34:00,
2013-02-28 14:39:00,32.8,28.8,29.79,North,352,9.0,20.0,85,0.00,,---,0.07,VWS V14.01,2013-02-28 19:39:00,
2013-02-28 14:44:00,32.7,29.3,29.79,NNE,25,8.0,20.0,87,0.00,,---,0.07,VWS V14.01,2013-02-28 19:44:00,
2013-02-28 14:49:00,32.8,29.6,29.80,North,356,5.0,20.0,88,0.00,,---,0.07,VWS V14.01,2013-02-28 19:49:00,
2013-02-28 14:54:00,32.9,29.2,29.80,NNE,22,12.0,20.0,86,0.00,,---,0.07,VWS V14.01,2013-02-28 19:54:00,
2013-02-28 14:59:00,32.9,28.9,29.80,NE,34,9.0,20.0,85,0.00,,---,0.07,VWS V14.01,2013-02-28 19:59:00,
2013-02-28 15:05:00,32.9,28.9,29.80,WNW,290,6.0,11.0,85,0.00,,---,0.07,VWS V14.01,2013-02-28 20:05:00,
2013-02-28 15:09:00,32.8,28.8,29.81,NNW,342,8.0,18.0,85,0.00,,---,0.07,VWS V14.01,2013-02-28 20:09:00,
2013-02-28 15:15:00,32.8,28.8,29.81,NNE,20,6.0,18.0,85,0.00,,---,0.07,VWS V14.01,2013-02-28 20:15:00,
2013-02-28 15:20:00,32.8,28.8,29.81,North,11,8.0,18.0,85,0.00,,---,0.07,VWS V14.01,2013-02-28 20:20:00,
2013-02-28 15:25:00,32.8,28.8,29.81,NNE,16,10.0,18.0,85,0.00,,---,0.07,VWS V14.01,2013-02-28 20:25:00,
2013-02-28 15:30:00,32.8,28.8,29.82,North,352,5.0,18.0,85,0.00,,---,0.07,VWS V14.01,2013-02-28 20:30:00,
2013-02-28 15:35:00,32.9,28.9,29.82,NNW,340,8.0,18.0,85,0.00,,---,0.07,VWS V14.01,2013-02-28 20:35:00,
2013-02-28 15:40:00,32.9,28.9,29.82,NW,312,10.0,18.0,85,0.00,,---,0.07,VWS V14.01,2013-02-28 20:40:00,
2013-02-28 15:45:00,32.8,28.8,29.82,NW,314,5.0,18.0,85,0.00,,---,0.07,VWS V14.01,2013-02-28 20:45:00,
2013-02-28 15:51:00,32.9,28.9,29.82,NNW,344,10.0,18.0,85,0.00,,---,0.07,VWS V14.01,2013-02-28 20:51:00,
2013-02-28 15:56:00,33.0,29.0,29.82,North,6,12.0,18.0,85,0.00,,---,0.07,VWS V14.01,2013-02-28 20:56:00,
2013-02-28 16:01:00,32.9,28.6,29.83,NNW,336,9.0,18.0,84,0.00,,---,0.07,VWS V14.01,2013-02-28 21:01:00,
2013-02-28 16:06:00,32.9,28.6,29.83,NW,323,6.0,12.0,84,0.00,,---,0.07,VWS V14.01,2013-02-28 21:06:00,
2013-02-28 16:11:00,32.9,28.6,29.83,NNE,25,9.0,12.0,84,0.00,,---,0.07,VWS V14.01,2013-02-28 21:11:00,
2013-02-28 16:16:00,32.7,28.4,29.83,NNE,13,4.0,17.0,84,0.00,,---,0.07,VWS V14.01,2013-02-28 21:16:00,
2013-02-28 16:21:00,32.6,28.3,29.83,NNE,16,7.0,17.0,84,0.00,,---,0.07,VWS V14.01,2013-02-28 21:21:00,
2013-02-28 16:26:00,32.5,28.5,29.83,NE,45,13.0,17.0,85,0.00,,---,0.07,VWS V14.01,2013-02-28 21:26:00,
2013-02-28 16:32:00,32.4,28.1,29.84,NNE,33,6.0,17.0,84,0.00,,---,0.07,VWS V14.01,2013-02-28 21:32:00,
2013-02-28 16:37:00,32.3,28.3,29.84,NE,37,14.0,17.0,85,0.00,,---,0.07,VWS V14.01,2013-02-28 21:37:00,
2013-02-28 16:42:00,32.2,28.2,29.84,NNE,20,7.0,17.0,85,0.00,,---,0.07,VWS V14.01,2013-02-28 21:42:00,
2013-02-28 16:47:00,32.1,28.1,29.84,North,9,7.0,17.0,85,0.00,,---,0.07,VWS V14.01,2013-02-28 21:47:00,
2013-02-28 16:52:00,32.0,28.3,29.85,NNE,12,7.0,17.0,86,0.00,,---,0.07,VWS V14.01,2013-02-28 21:52:00,
2013-02-28 16:58:00,31.9,28.2,29.85,NNE,19,6.0,18.0,86,0.00,,---,0.07,VWS V14.01,2013-02-28 21:58:00,
2013-02-28 17:03:00,31.8,28.4,29.85,NE,39,5.0,5.0,87,0.00,,---,0.07,VWS V14.01,2013-02-28 22:03:00,
2013-02-28 17:08:00,31.7,28.3,29.86,NNW,342,4.0,14.0,87,0.00,,---,0.07,VWS V14.01,2013-02-28 22:08:00,
2013-02-28 17:13:00,31.6,28.5,29.86,NNE,15,7.0,14.0,88,0.00,,---,0.07,VWS V14.01,2013-02-28 22:13:00,
2013-02-28 17:18:00,31.4,28.5,29.86,NNW,342,4.0,15.0,89,0.00,,---,0.07,VWS V14.01,2013-02-28 22:18:00,
2013-02-28 17:23:00,31.4,28.5,29.87,NNE,20,12.0,15.0,89,0.00,,---,0.07,VWS V14.01,2013-02-28 22:23:00,
2013-02-28 17:28:00,31.3,28.4,29.87,NNE,22,4.0,15.0,89,0.00,,---,0.07,VWS V14.01,2013-02-28 22:28:00,
2013-02-28 17:33:00,31.3,28.4,29.87,NW,325,5.0,15.0,89,0.00,,---,0.07,VWS V14.01,2013-02-28 22:33:00,
2013-02-28 17:39:00,31.3,28.4,29.87,North,6,6.0,15.0,89,0.00,,---,0.07,VWS V14.01,2013-02-28 22:39:00,
2013-02-28 17:44:00,31.2,28.3,29.87,North,353,4.0,15.0,89,0.00,,---,0.07,VWS V14.01,2013-02-28 22:44:00,
2013-02-28 17:49:00,31.0,28.4,29.88,NNE,15,4.0,15.0,90,0.00,,---,0.07,VWS V14.01,2013-02-28 22:49:00,
2013-02-28 17:54:00,30.8,28.5,29.88,North,4,6.0,15.0,91,0.00,,---,0.07,VWS V14.01,2013-02-28 22:54:00,
2013-02-28 17:59:00,30.8,28.5,29.88,NNE,29,7.0,15.0,91,0.00,,---,0.07,VWS V14.01,2013-02-28 22:59:00,
2013-02-28 18:04:00,30.7,28.4,29.88,North,11,9.0,11.0,91,0.00,,---,0.07,VWS V14.01,2013-02-28 23:04:00,
2013-02-28 18:09:00,30.8,28.5,29.89,NNW,345,3.0,11.0,91,0.00,,---,0.07,VWS V14.01,2013-02-28 23:09:00,
2013-02-28 18:14:00,30.8,28.2,29.89,NW,326,2.0,11.0,90,0.00,,---,0.07,VWS V14.01,2013-02-28 23:14:00,
2013-02-28 18:20:00,30.8,28.0,29.89,NNW,336,5.0,11.0,89,0.00,,---,0.07,VWS V14.01,2013-02-28 23:20:00,
2013-02-28 18:25:00,30.9,28.0,29.90,NNE,15,6.0,11.0,89,0.00,,---,0.07,VWS V14.01,2013-02-28 23:25:00,
2013-02-28 18:30:00,30.9,27.8,29.90,NNW,338,7.0,12.0,88,0.00,,---,0.07,VWS V14.01,2013-02-28 23:30:00,
2013-02-28 18:35:00,30.9,27.8,29.90,North,352,11.0,12.0,88,0.00,,---,0.07,VWS V14.01,2013-02-28 23:35:00,
2013-02-28 18:40:00,30.9,27.8,29.90,NNW,342,6.0,12.0,88,0.00,,---,0.07,VWS V14.01,2013-02-28 23:40:00,
2013-02-28 18:45:00,30.9,27.8,29.90,North,350,8.0,12.0,88,0.00,,---,0.07,VWS V14.01,2013-02-28 23:45:00,
2013-02-28 18:50:00,30.9,27.8,29.91,NNW,346,5.0,12.0,88,0.00,,---,0.07,VWS V14.01,2013-02-28 23:50:00,
2013-02-28 18:55:00,30.8,28.0,29.91,NE,34,4.0,12.0,89,0.00,,---,0.07,VWS V14.01,2013-02-28 23:55:00,
2013-02-28 19:00:00,30.7,27.9,29.91,North,7,2.0,12.0,89,0.00,,---,0.07,VWS V14.01,2013-03-01 00:00:00,
2013-02-28 19:05:00,30.7,27.9,29.92,North,352,8.0,10.0,89,0.00,,---,0.07,VWS V14.01,2013-03-01 00:05:00,
2013-02-28 19:10:00,30.7,27.9,29.92,NNE,15,5.0,10.0,89,0.00,,---,0.07,VWS V14.01,2013-03-01 00:10:00,
2013-02-28 19:15:00,30.6,27.5,29.92,NE,46,7.0,11.0,88,0.00,,---,0.07,VWS V14.01,2013-03-01 00:15:00,
2013-02-28 19:20:00,30.6,27.5,29.92,ENE,63,6.0,12.0,88,0.00,,---,0.07,VWS V14.01,2013-03-01 00:20:00,
2013-02-28 19:26:00,30.6,27.5,29.92,NNE,19,9.0,14.0,88,0.00,,---,0.07,VWS V14.01,2013-03-01 00:26:00,
2013-02-28 19:31:00,30.5,27.4,29.92,NNE,15,10.0,14.0,88,0.00,,---,0.07,VWS V14.01,2013-03-01 00:31:00,
2013-02-28 19:36:00,30.5,27.4,29.92,NNE,15,10.0,14.0,88,0.00,,---,0.07,VWS V14.01,2013-03-01 00:36:00,
2013-02-28 19:41:00,30.5,27.4,29.93,NNE,32,5.0,14.0,88,0.00,,---,0.07,VWS V14.01,2013-03-01 00:41:00,
2013-02-28 19:46:00,30.4,27.3,29.93,NNE,25,9.0,14.0,88,0.00,,---,0.07,VWS V14.01,2013-03-01 00:46:00,
2013-02-28 19:51:00,30.4,27.3,29.93,NNE,16,8.0,14.0,88,0.00,,---,0.07,VWS V14.01,2013-03-01 00:51:00,
2013-02-28 19:56:00,30.3,27.5,29.93,North,1,6.0,14.0,89,0.00,,---,0.07,VWS V14.01,2013-03-01 00:56:00,
2013-02-28 20:02:00,30.2,27.4,29.93,North,356,2.0,5.0,89,0.00,,---,0.07,VWS V14.01,2013-03-01 01:02:00,
2013-02-28 20:07:00,30.2,27.4,29.94,North,352,9.0,10.0,89,0.00,,---,0.07,VWS V14.01,2013-03-01 01:07:00,
2013-02-28 20:12:00,30.2,27.4,29.94,North,6,5.0,11.0,89,0.00,,---,0.07,VWS V14.01,2013-03-01 01:12:00,
2013-02-28 20:17:00,30.2,27.4,29.94,NNE,18,7.0,11.0,89,0.00,,---,0.07,VWS V14.01,2013-03-01 01:17:00,
2013-02-28 20:22:00,30.2,27.4,29.94,NE,43,8.0,14.0,89,0.00,,---,0.07,VWS V14.01,2013-03-01 01:22:00,
2013-02-28 20:27:00,30.2,27.1,29.94,North,358,10.0,14.0,88,0.00,,---,0.07,VWS V14.01,2013-03-01 01:27:00,
2013-02-28 20:32:00,30.1,27.0,29.95,NNE,15,6.0,14.0,88,0.00,,---,0.07,VWS V14.01,2013-03-01 01:32:00,
2013-02-28 20:37:00,30.1,27.0,29.95,NE,41,6.0,14.0,88,0.00,,---,0.07,VWS V14.01,2013-03-01 01:37:00,
2013-02-28 20:43:00,30.0,26.9,29.95,NNE,22,6.0,14.0,88,0.00,,---,0.07,VWS V14.01,2013-03-01 01:43:00,
2013-02-28 20:48:00,30.0,26.9,29.95,NNE,15,6.0,14.0,88,0.00,,---,0.07,VWS V14.01,2013-03-01 01:48:00,
2013-02-28 20:53:00,30.0,26.9,29.95,North,8,9.0,14.0,88,0.00,,---,0.07,VWS V14.01,2013-03-01 01:53:00,
2013-02-28 20:58:00,30.0,26.6,29.96,NNW,338,6.0,14.0,87,0.00,,---,0.07,VWS V14.01,2013-03-01 01:58:00,
2013-02-28 21:03:00,30.0,26.6,29.96,NNW,328,5.0,8.0,87,0.00,,---,0.07,VWS V14.01,2013-03-01 02:03:00,
2013-02-28 21:08:00,30.0,26.6,29.96,NNW,342,5.0,14.0,87,0.00,,---,0.07,VWS V14.01,2013-03-01 02:08:00,
2013-02-28 21:13:00,30.0,26.3,29.96,NNE,20,8.0,14.0,86,0.00,,---,0.07,VWS V14.01,2013-03-01 02:13:00,
2013-02-28 21:18:00,29.9,26.5,29.96,North,356,7.0,14.0,87,0.00,,---,0.07,VWS V14.01,2013-03-01 02:18:00,
2013-02-28 21:24:00,29.9,26.5,29.96,NNE,22,7.0,14.0,87,0.00,,---,0.07,VWS V14.01,2013-03-01 02:24:00,
2013-02-28 21:29:00,29.8,26.1,29.97,NNE,15,9.0,14.0,86,0.00,,---,0.07,VWS V14.01,2013-03-01 02:29:00,
2013-02-28 21:34:00,29.8,26.1,29.97,NNE,19,16.0,16.0,86,0.00,,---,0.07,VWS V14.01,2013-03-01 02:34:00,
2013-02-28 21:39:00,29.7,26.0,29.97,NNE,13,8.0,17.0,86,0.00,,---,0.07,VWS V14.01,2013-03-01 02:39:00,
2013-02-28 21:44:00,29.6,25.6,29.97,NNE,32,13.0,17.0,85,0.00,,---,0.07,VWS V14.01,2013-03-01 02:44:00,
2013-02-28 21:49:00,29.5,25.6,29.97,NNE,26,7.0,17.0,85,0.00,,---,0.07,VWS V14.01,2013-03-01 02:49:00,
2013-02-28 21:54:00,29.3,25.4,29.97,NNE,15,9.0,17.0,85,0.00,,---,0.07,VWS V14.01,2013-03-01 02:54:00,
2013-02-28 21:59:00,29.3,25.4,29.97,NNW,345,8.0,17.0,85,0.00,,---,0.07,VWS V14.01,2013-03-01 02:59:00,
2013-02-28 22:05:00,29.2,25.5,29.97,NNE,22,9.0,10.0,86,0.00,,---,0.07,VWS V14.01,2013-03-01 03:05:00,
2013-02-28 22:10:00,29.2,25.3,29.97,North,9,9.0,10.0,85,0.00,,---,0.07,VWS V14.01,2013-03-01 03:10:00,
2013-02-28 22:15:00,29.1,25.2,29.98,North,358,10.0,12.0,85,0.00,,---,0.07,VWS V14.01,2013-03-01 03:15:00,
2013-02-28 22:20:00,29.1,25.2,29.98,NNE,20,6.0,12.0,85,0.00,,---,0.07,VWS V14.01,2013-03-01 03:20:00,
2013-02-28 22:25:00,29.1,25.2,29.98,North,9,4.0,12.0,85,0.00,,---,0.07,VWS V14.01,2013-03-01 03:25:00,
2013-02-28 22:30:00,29.0,25.1,29.98,North,359,8.0,16.0,85,0.00,,---,0.07,VWS V14.01,2013-03-01 03:30:00,
2013-02-28 22:35:00,29.0,25.1,29.98,NNW,346,7.0,16.0,85,0.00,,---,0.07,VWS V14.01,2013-03-01 03:35:00,
2013-02-28 22:40:00,28.9,25.0,29.98,North,8,14.0,16.0,85,0.00,,---,0.07,VWS V14.01,2013-03-01 03:40:00,
2013-02-28 22:45:00,28.8,25.1,29.98,North,1,7.0,17.0,86,0.00,,---,0.07,VWS V14.01,2013-03-01 03:45:00,
2013-02-28 22:50:00,28.8,25.1,29.98,NE,41,6.0,17.0,86,0.00,,---,0.07,VWS V14.01,2013-03-01 03:50:00,
2013-02-28 22:56:00,28.7,25.3,29.98,NNE,19,6.0,17.0,87,0.00,,---,0.07,VWS V14.01,2013-03-01 03:56:00,
2013-02-28 23:01:00,28.7,25.0,29.98,NNE,27,5.0,17.0,86,0.00,,---,0.07,VWS V14.01,2013-03-01 04:01:00,
2013-02-28 23:06:00,28.6,25.0,29.98,NNE,20,8.0,13.0,86,0.00,,---,0.07,VWS V14.01,2013-03-01 04:06:00,
2013-02-28 23:11:00,28.6,24.7,29.98,NNE,27,9.0,13.0,85,0.00,,---,0.07,VWS V14.01,2013-03-01 04:11:00,
2013-02-28 23:16:00,28.6,24.7,29.98,NNE,15,4.0,13.0,85,0.00,,---,0.07,VWS V14.01,2013-03-01 04:16:00,
2013-02-28 23:21:00,28.6,24.7,29.98,North,356,6.0,13.0,85,0.00,,---,0.07,VWS V14.01,2013-03-01 04:21:00,
2013-02-28 23:26:00,28.6,24.7,29.98,NE,36,6.0,13.0,85,0.00,,---,0.07,VWS V14.01,2013-03-01 04:26:00,
2013-02-28 23:32:00,28.5,24.6,29.98,NNE,22,5.0,14.0,85,0.00,,---,0.07,VWS V14.01,2013-03-01 04:32:00,
2013-02-28 23:37:00,28.5,24.6,29.98,NNW,342,11.0,14.0,85,0.00,,---,0.07,VWS V14.01,2013-03-01 04:37:00,
2013-02-28 23:42:00,28.4,24.5,29.98,North,354,8.0,14.0,85,0.00,,---,0.07,VWS V14.01,2013-03-01 04:42:00,
2013-02-28 23:47:00,28.3,24.7,29.99,NE,36,9.0,14.0,86,0.00,,---,0.07,VWS V14.01,2013-03-01 04:47:00,
2013-02-28 23:52:00,28.3,24.7,29.98,NW,304,5.0,14.0,86,0.00,,---,0.07,VWS V14.01,2013-03-01 04:52:00,
2013-02-28 23:57:00,28.3,24.7,29.98,NNE,19,7.0,14.0,86,0.00,,---,0.07,VWS V14.01,2013-03-01 04:57:00,